Location: Milevsko
(49.4500°N, 14.3670°E)
Time: 01:30:03
(UTC+01:00)

ISS - Pass Details

Date: 13 July 2018
Orbit: 401 x 408 km, 51.6° (Epoch: 20 November)

Event Time Altitude Azimuth Distance (km) Brightness Sun altitude
Exits shadow 03:33:25 - 269° (W) 1,716 -1.0 -11.7°
Reaches altitude 10° 03:33:58 10° 270° (W) 1,491 -1.3 -11.7°
Maximum altitude 03:37:18 61° 352° (N) 477 -3.3 -11.4°
Drops below altitude 10° 03:40:38 10° 74° (ENE) 1,499 -0.1 -11.1°
Sets 03:42:45 0° 78° (ENE) 2,365 0.9 -10.9°
